Location: CCZU
(31.6840°N, 119.9550°E)
Time: 22:51:57
(UTC+08:00)

Tiangong 2 - Pass Details

Date: 05 May 2019
Orbit: 379 x 387 km, 42.8° (Epoch: 24 May)

Event Time Altitude Azimuth Distance (km) Brightness Sun altitude
Exits shadow 03:37:34 38° 320° (NW) 595 1.9 -18.8°
Maximum altitude 03:37:49 39° 333° (NNW) 586 2.0 -18.7°
Drops below altitude 10° 03:40:49 10° 45° (NE) 1,401 5.1 -18.2°
Sets 03:42:58 0° 53° (NE) 2,258 6.7 -17.8°
